Flag for Argentina Weather past 2 weeks in Resistencia, Chaco, Argentina

Now
73 °F

Cloudy.


Feels Like: 70 °F
Forecast: 74 / 87 °F
Wind: 3 mph from South

Location: Resistencia Aero.

Current Time: Jan 29, 2015 at 7:54:30 AM

Latest Report: Jan 29, 2015 at 7:00 AM


Visibility: N/A

Pressure: 29.86 "Hg

Humidity: 94%

Dew point: 72 °F

Location of ResistenciaLocation

Historic Weather in Resistencia — Graph

°F

Resistencia temperature yesterday

Maximum temperature yesterday: 93 °F (at 3:00 PM)
Minimum temperature yesterday: 75 °F (at 3:00 AM)
Average temperature yesterday: 81 °F

Past Weeks' High & Low Weather Summary

 TemperatureHumidityPressure
High99 °F (Jan 19, 4:00 PM)100% (Jan 14, 11:00 AM)30.07 "Hg (Jan 14, 11:00 AM)
Low66 °F (Jan 22, 6:00 AM)37% (Jan 26, 4:00 PM)29.56 "Hg (Jan 15, 1:00 AM)
Average81 °F80%29.86 "Hg
* Reported Jan 14 7:00 AM — Jan 29 6:00 AM, Resistencia, Weather by CustomWeather, © 2014

Note: Actual official high and low records may vary slightly from our data, if they occured in-between our weather recording intervals... More about our weather records

Advertising

Resistencia weather history for previous 24 hours

 ConditionsComfort  
Time TempWeatherWind HumidityBarometerVisibility
6:00 AM
Jan 29
73 °FMore clouds than sun.5 mph94%29.83 "HgN/A
5:00 AM75 °FPartly cloudy.9 mph94%29.80 "HgN/A
4:00 AM77 °FPassing clouds.N/A89%29.80 "HgN/A
3:00 AM73 °FClear.N/A100%29.80 "Hg10 mi
2:00 AM73 °FClear.2 mph100%29.77 "Hg10 mi
1:00 AM75 °FClear.No wind100%29.80 "Hg10 mi
12:00 AM75 °FClear.No wind100%29.80 "Hg10 mi
11:00 PM
Jan 28
75 °FPassing clouds.1 mph100%29.80 "HgN/A
10:00 PM77 °FPassing clouds.No wind94%29.77 "HgN/A
9:00 PM75 °FPartly cloudy.1 mph94%29.74 "HgN/A
8:00 PM77 °FPartly cloudy.3 mph89%29.68 "HgN/A
7:00 PM79 °FThunderstorms. Passing clouds.2 mph94%29.71 "Hg5 mi
6:00 PM81 °FThunderstorms. Broken clouds.2 mph79%29.65 "Hg5 mi
5:00 PM82 °FThunderstorms. Partly sunny.8 mph79%29.62 "Hg5 mi
4:00 PM86 °FThunderstorms. Partly sunny.6 mph79%29.65 "Hg5 mi
3:00 PM93 °FThunderstorms. Partly sunny.5 mph59%29.68 "HgN/A
2:00 PM91 °FPartly sunny.5 mph67%29.68 "HgN/A
1:00 PM91 °FBroken clouds.8 mph59%29.71 "HgN/A
12:00 PM91 °FBroken clouds.3 mph59%29.74 "HgN/A
11:00 AM88 °FPartly sunny.10 mph62%29.74 "HgN/A
10:00 AM84 °FSunny.9 mph70%29.74 "Hg10 mi
9:00 AM82 °FSunny.10 mph79%29.77 "Hg10 mi
8:00 AM77 °FSunny.5 mph89%29.74 "Hg10 mi
7:00 AM75 °FClear.7 mph94%29.74 "Hg5 mi
Weather by CustomWeather, © 2014

See weather overviewHow to use our weather pages